Weather History for KSLE - September, 2013

Change the Weather History Date:

Friday, September 27, 2013

  Actual Average Record
Temperature  
Mean Temperature 59 °F 60 °F  
Max Temperature 71 °F 73 °F 98 °F (2003)
Min Temperature 47 °F 46 °F 26 °F (1972)
Degree Days  
Heating Degree Days 6 6  
Month to date heating degree days 58 90  
Since 1 July heating degree days 63 146  
Cooling Degree Days 0 0  
Month to date cooling degree days 75 36  
Year to date cooling degree days 502 288  
Growing Degree Days 10 (Base 50)    
Moisture  
Dew Point 49 °F    
Average Humidity 76    
Maximum Humidity 93    
Minimum Humidity 58    
Precipitation  
Precipitation 0.14 in 0.06 in 1.24 in (1927)
Month to date precipitation 3.63 1.10  
Year to date precipitation 15.59 23.10  
Snow  
Snow 0.00 in - - ()
Month to date snowfall 0.0  
Snow Depth 0.00 in    
Sea Level Pressure  
Sea Level Pressure 30.09 in    
Wind  
Wind Speed 8 mph (South)    
Max Wind Speed 25 mph    
Max Gust Speed 33 mph    
Visibility 10 miles    
Events Rain    
T = Trace of Precipitation, MM = Missing Value Source: NWS Daily Summary

Daily Weather History Graph

Daily Weather History Graph

Search for Another Location

Airport or City:

Trip Planner

Search our weather history database for the weather conditions in past years. The results will help you decide how hot, cold, wet, or windy it might be!

Date:

Astronomy

Sep. 27, 2013 Rise Set
Actual Time 7:05 AM PDT 6:59 PM PDT
Civil Twilight 6:36 AM PDT 7:28 PM PDT
Nautical Twilight 6:02 AM PDT 8:02 PM PDT
Astronomical Twilight 5:27 AM PDT 8:37 PM PDT
Moon No Moon Rise 2:55 PM PDT (9/27)
Length of Visible Light 12h 52m
Length of Day
11h 53m
Last Quarter, 44% of the Moon is Illuminated
Sep 27
Last Quarter
Oct 4
New
Oct 11
First Quarter
Oct 18
Full
Oct 26
Last Quarter

Hourly Weather History & Observations

Time (PDT) Temp. Dew Point Humidity Pressure Visibility Wind Dir Wind Speed Gust Speed Precip Events Conditions
12:56 AM 48.9 °F 46.0 °F 90% 30.18 in 10.0 mi South 3.5 mph - N/A   Clear
1:56 AM 48.0 °F 46.0 °F 93% 30.18 in 10.0 mi Calm Calm - N/A   Clear
2:56 AM 48.9 °F 46.9 °F 93% 30.18 in 10.0 mi South 3.5 mph - N/A   Mostly Cloudy
3:56 AM 48.0 °F 46.9 °F 96% 30.17 in 10.0 mi South 5.8 mph - N/A   Mostly Cloudy
4:10 AM 48.2 °F 46.4 °F 93% 30.17 in 10.0 mi South 5.8 mph - N/A   Scattered Clouds
4:34 AM 48.2 °F 48.2 °F 100% 30.16 in 10.0 mi SE 5.8 mph - N/A   Mostly Cloudy
4:56 AM 48.9 °F 46.9 °F 93% 30.15 in 10.0 mi SSE 10.4 mph - N/A   Mostly Cloudy
5:08 AM 48.2 °F 46.4 °F 93% 30.15 in 10.0 mi SE 8.1 mph - N/A   Mostly Cloudy
5:56 AM 48.9 °F 46.9 °F 93% 30.16 in 10.0 mi SSE 6.9 mph - N/A   Overcast
6:56 AM 50.0 °F 46.9 °F 89% 30.15 in 10.0 mi South 8.1 mph - N/A   Scattered Clouds
7:56 AM 50.0 °F 46.9 °F 89% 30.14 in 10.0 mi South 8.1 mph - N/A   Scattered Clouds
8:56 AM 52.0 °F 48.0 °F 86% 30.14 in 10.0 mi South 10.4 mph - N/A   Overcast
9:56 AM 53.1 °F 46.9 °F 80% 30.15 in 10.0 mi South 12.7 mph - N/A   Overcast
10:56 AM 66.9 °F 50.0 °F 54% 30.13 in 10.0 mi South 13.8 mph - 0.01 in Rain Light Rain
11:56 AM 71.1 °F 52.0 °F 51% 30.11 in 10.0 mi South 12.7 mph 21.9 mph 0.00 in   Overcast
12:08 PM 69.8 °F 51.8 °F 53% 30.11 in 10.0 mi South 16.1 mph 20.7 mph N/A   Overcast
12:56 PM 66.9 °F 51.1 °F 57% 30.09 in 10.0 mi South 19.6 mph 25.3 mph 0.00 in Rain Light Rain
1:56 PM 66.0 °F 51.1 °F 59% 30.07 in 7.0 mi South 16.1 mph - 0.07 in Rain Light Rain
2:56 PM 66.0 °F 52.0 °F 60% 30.06 in 10.0 mi South 18.4 mph 26.5 mph 0.04 in   Mostly Cloudy
3:31 PM 66.2 °F 51.8 °F 60% 30.05 in 10.0 mi South 23.0 mph 31.1 mph N/A   Overcast
3:56 PM 64.9 °F 51.1 °F 61% 30.05 in 10.0 mi South 15.0 mph 33.4 mph 0.00 in Rain Light Rain
4:36 PM 64.4 °F 51.8 °F 64% 30.05 in 10.0 mi South 19.6 mph 28.8 mph N/A   Overcast
4:56 PM 66.9 °F 51.1 °F 57% 30.06 in 10.0 mi South 17.3 mph 23.0 mph 0.00 in   Overcast
5:56 PM - - N/A% 30.03 in 8.0 mi South 15.0 mph - 0.01 in Rain Light Rain
6:56 PM - - N/A% 30.02 in 10.0 mi South 15.0 mph - 0.01 in   Overcast
7:56 PM - - N/A% 30.01 in 10.0 mi South 16.1 mph 23.0 mph 0.00 in Rain Light Rain
8:03 PM - - N/A% 30.00 in 10.0 mi South 15.0 mph 23.0 mph 0.00 in Rain Light Rain
8:11 PM - - N/A% 30.00 in 10.0 mi South 16.1 mph 25.3 mph 0.00 in Rain Light Rain
8:56 PM - - N/A% 29.98 in 10.0 mi SSE 17.3 mph - 0.01 in   Overcast
9:56 PM - - N/A% 29.98 in 10.0 mi South 12.7 mph 24.2 mph N/A   Overcast
10:56 PM - - N/A% 29.96 in 10.0 mi SSE 13.8 mph - 0.02 in Rain Light Rain
11:56 PM - - N/A% 29.93 in 10.0 mi South 18.4 mph - 0.00 in   Overcast